Wind_Speed
7 7 7 6 5 6 5 5 4 3 4 4 4 4 5 4 5 5 5 5 5 5 4 3 3 3 3 3 2 2 3 3 3 3 3 3 4 5 4 5 4 4 5
7 8 8 7 7 6 5 4 4 4 3 3 3 4 4 4 5 5 5 5 5 5 4 3 3 3 3 3 3 2 3 3 3 2 3 3 4 5 4 4 4 3 4
7 7 7 6 6 6 5 5 4 4 3 3 4 4 5 5 5 5 5 5 5 5 4 4 3 2 3 3 3 3 2 2 3 3 3 4 4 4 4 4 4 4 4
7 7 6 6 5 5 5 4 4 4 4 4 4 4 4 4 4 5 5 5 5 5 4 4 4 4 4 4 3 3 2 2 3 2 3 4 5 5 4 4 4 4 4
7 6 5 5 4 4 5 5 4 4 3 3 4 4 4 4 4 6 6 6 6 5 5 5 5 5 4 4 3 3 2 2 3 2 3 4 5 6 5 5 5 5 5
6 5 5 4 4 4 4 4 4 4 3 4 4 4 5 5 6 6 6 6 5 5 5 5 5 5 4 4 3 2 2 2 2 2 3 3 4 6 6 6 6 6 5
6 5 5 4 4 4 4 4 4 4 4 4 4 4 5 5 6 6 6 5 5 5 5 5 5 5 4 3 3 2 2 2 2 2 2 2 3 4 6 7 6 7 6
8 6 5 5 5 5 4 4 4 4 4 4 5 5 4 5 5 6 5 5 5 5 4 4 4 4 3 2 2 1 1 1 1 1 0 1 1 3 5 6 6 6 7
7 7 5 5 5 4 4 4 4 4 4 4 5 4 4 4 4 5 4 4 4 4 3 3 2 2 2 1 0 0 0 0 1 1 0 1 1 3 5 5 5 5 6
6 6 5 4 4 4 3 3 3 4 4 4 4 4 3 3 3 4 3 3 3 3 2 2 1 1 1 1 0 0 0 1 2 1 1 2 2 3 4 4 6 6 6
6 6 6 4 4 4 4 3 3 4 4 4 4 3 3 2 2 3 2 2 1 1 1 0 0 0 1 1 1 1 1 1 1 2 1 2 2 3 4 5 6 6 6
7 6 6 5 4 4 4 4 3 3 3 3 3 3 2 3 2 2 1 1 1 1 1 0 0 1 2 2 2 2 2 2 2 1 2 2 2 2 4 4 5 5 6
7 6 5 5 5 4 4 4 3 3 2 2 2 2 2 1 2 1 0 1 1 1 1 1 0 1 2 2 2 2 3 3 3 2 1 1 2 2 3 5 5 5 5
7 7 6 6 6 5 4 4 3 2 1 1 1 1 1 1 1 1 1 1 1 2 2 1 1 1 2 2 3 3 3 3 2 2 3 2 2 1 2 4 4 5 5
7 8 8 7 6 5 5 5 4 3 2 2 1 1 1 1 2 2 1 1 2 2 2 2 2 2 3 3 3 3 3 3 2 2 2 3 3 3 3 4 5 6 5
7 8 8 7 7 6 6 6 6 4 3 2 2 2 2 2 2 2 2 2 2 2 3 2 3 2 3 3 4 4 3 3 3 3 2 3 3 4 4 4 5 5 5
7 8 7 7 7 7 7 7 6 6 5 4 4 3 3 2 2 2 3 3 2 2 2 3 3 3 4 4 4 4 4 4 4 4 4 4 4 4 4 5 6 6 5
7 7 7 7 8 7 8 8 7 7 6 6 5 5 4 3 2 2 3 3 3 2 2 3 4 5 4 4 5 5 5 5 5 5 5 5 5 5 4 4 5 6 6
7 7 7 7 7 8 8 8 8 7 7 6 6 6 5 4 3 3 3 3 3 3 3 3 4 5 5 5 6 6 6 6 6 6 6 5 5 5 4 4 5 5 5
7 7 6 7 7 8 8 8 8 8 8 7 7 6 5 5 4 4 4 3 3 3 4 4 5 5 6 6 6 6 6 7 7 6 6 6 5 5 5 5 5 6 6
7 6 7 7 7 7 8 9 9 9 10 9 9 7 6 5 6 5 4 4 4 4 4 5 5 5 6 6 7 7 7 7 7 7 6 6 6 6 7 7 7 7 7
6 6 6 7 7 8 8 9 9 9 10 10 9 9 7 6 6 5 5 6 6 6 6 5 6 5 6 6 7 7 6 7 7 8 8 7 8 8 8 8 8 8 8
7 6 6 7 7 7 8 9 9 10 10 10 10 9 9 8 6 6 6 6 6 6 6 6 6 6 6 7 7 7 7 7 7 7 8 8 8 9 9 9 9 8 8
7 6 6 7 7 7 8 9 10 10 10 10 10 9 9 9 8 7 7 7 7 7 7 7 7 7 7 7 7 7 7 8 8 8 8 8 8 8 9 9 9 9 9
8 7 6 7 7 8 8 9 10 10 10 10 10 10 10 9 9 8 8 8 8 8 7 8 8 8 8 8 8 8 8 9 9 10 10 9 9 8 9 10 11 10 10
7 8 8 9 8 8 9 9 10 10 11 11 11 10 10 10 9 9 8 9 9 8 8 9 9 8 8 9 9 10 10 10 10 10 10 9 9 9 9 10 10 10 11
Wind_Direction
77 83 80 92 97 93 91 92 90 89 93 85 84 102 107 108 105 103 116 121 120 115 118 124 122 121 124 130 131 137 160 159 157 163 177 198 197 189 196 212 208 215 215
74 79 80 84 85 85 91 98 97 94 96 92 85 100 107 106 108 108 109 116 115 113 110 108 113 118 124 130 129 129 153 160 165 159 170 189 193 197 205 200 204 211 211
72 79 77 77 80 84 90 96 99 103 101 92 93 102 108 108 103 103 105 109 110 114 109 99 103 102 112 124 125 127 144 166 157 152 163 188 192 189 197 197 207 207 209
71 74 72 71 77 82 85 96 105 108 107 98 105 106 105 106 98 102 103 105 105 106 109 106 100 95 115 119 119 123 133 135 147 162 179 196 199 194 207 211 216 212 211
68 67 69 68 69 77 86 91 101 110 106 103 115 112 104 101 98 105 105 103 101 100 106 107 101 99 106 114 116 124 133 122 138 171 192 206 209 214 222 218 216 213 210
65 66 72 70 66 78 86 91 93 98 102 106 119 114 109 112 112 104 106 103 105 105 100 97 103 103 101 103 112 123 133 128 131 174 208 212 222 224 221 215 214 211 209
64 65 72 70 71 79 80 81 87 94 100 106 107 108 116 120 116 110 107 107 111 107 99 95 101 97 93 94 102 115 117 131 131 171 214 232 246 243 218 209 206 210 213
61 67 69 61 58 63 73 80 88 90 102 106 108 110 117 114 113 110 111 115 114 113 105 101 100 90 83 78 83 95 100 140 154 165 190 261 244 214 197 202 204 208 213
61 57 63 58 49 56 66 77 69 76 90 98 108 116 119 113 109 109 114 116 111 112 112 112 106 90 74 56 51 72 15 261 208 203 222 230 216 184 190 202 210 211 215
56 51 54 57 46 44 58 70 71 67 78 92 100 110 113 119 116 109 106 110 111 115 116 116 116 84 33 356 324 204 256 277 251 251 249 220 212 204 206 213 214 218 221
57 52 51 49 52 56 58 61 69 69 72 86 95 97 98 103 113 113 104 101 114 117 119 129 130 356 320 317 294 203 216 291 301 267 263 216 221 215 206 214 213 222 225
53 46 48 50 61 53 55 62 80 81 75 73 76 80 85 83 81 92 126 151 192 187 184 135 153 304 311 311 296 256 245 274 301 285 263 253 252 232 208 211 213 220 230
45 42 44 45 48 45 48 51 64 81 78 75 81 70 49 52 57 53 72 239 240 202 198 180 269 306 303 315 312 289 272 269 302 306 293 256 254 258 226 220 222 229 232
42 41 41 41 41 44 48 48 51 64 60 57 44 33 27 6 2 341 340 333 266 228 225 223 252 278 288 298 305 293 276 282 306 313 312 309 273 258 239 226 236 233 233
46 46 43 42 42 45 44 43 43 41 48 52 40 16 352 339 319 314 324 300 281 264 248 239 242 261 267 289 300 301 288 291 288 295 289 291 274 269 267 230 227 227 233
43 43 45 48 48 49 44 40 38 37 30 25 27 30 16 336 309 291 293 293 283 260 245 241 244 265 279 292 301 303 307 309 293 305 300 277 282 286 276 252 234 233 239
42 42 47 51 51 50 48 44 41 34 28 17 14 14 12 355 330 300 291 293 292 266 239 242 250 265 279 289 299 301 293 296 293 298 294 290 289 283 273 256 235 240 242
40 43 46 49 48 47 46 42 39 35 25 12 9 11 6 4 342 315 301 297 300 277 257 256 254 266 281 291 293 297 294 285 287 288 285 293 291 283 274 265 250 246 247
39 42 43 42 43 41 39 36 33 29 22 14 7 1 354 352 353 334 316 298 290 279 269 270 267 269 279 287 290 292 293 288 282 283 286 286 287 279 270 263 266 260 251
36 37 36 37 37 38 33 27 26 22 16 12 9 0 354 348 343 336 322 309 294 282 277 278 279 274 272 278 282 286 288 294 279 283 285 284 283 276 272 265 263 265 263
31 28 24 29 32 33 27 20 18 17 12 8 7 5 353 340 332 332 329 322 307 296 291 291 287 281 275 274 277 284 288 296 283 280 282 280 279 276 270 267 266 267 274
18 20 20 23 22 19 16 13 10 10 8 7 4 359 354 339 330 330 325 321 312 300 296 298 297 285 286 283 283 285 290 293 289 286 287 281 278 278 270 269 270 270 275
14 22 22 19 14 11 8 5 4 3 4 5 3 358 354 345 332 325 314 311 307 298 294 298 299 290 290 291 291 290 288 287 287 289 289 281 275 274 268 264 265 264 270
9 13 14 11 10 4 0 0 359 357 356 358 356 353 349 348 339 326 317 309 305 299 294 292 294 293 289 290 291 290 290 290 288 293 293 284 278 274 273 268 265 265 272
358 1 3 1 359 356 351 352 351 351 349 348 346 343 341 342 338 329 320 313 307 298 292 288 287 286 284 289 290 290 291 290 290 290 290 287 281 277 273 269 266 267 270
350 353 353 351 350 348 345 342 342 344 343 341 339 335 334 335 334 331 327 318 311 304 296 287 285 288 288 289 287 289 289 287 286 288 290 287 282 278 277 278 272 269 274
Height
5888 5887 5887 5886 5886 5886 5886 5885 5885 5884 5884 5884 5883 5882 5882 5882 5881 5880 5879 5879 5879 5879 5879 5880 5880 5881 5881 5881 5881 5882 5882 5882 5882 5882 5882 5882 5882 5883 5884 5884 5885 5885 5886
5890 5888 5888 5887 5887 5887 5886 5886 5886 5885 5885 5884 5883 5883 5883 5882 5881 5881 5880 5880 5879 5880 5880 5880 5881 5881 5881 5882 5882 5882 5882 5882 5882 5881 5881 5882 5882 5883 5884 5884 5885 5885 5886
5890 5890 5889 5888 5888 5887 5887 5887 5886 5886 5885 5884 5884 5883 5883 5883 5882 5881 5881 5880 5881 5881 5881 5881 5881 5881 5882 5882 5882 5882 5882 5882 5882 5882 5881 5882 5882 5883 5883 5884 5884 5885 5885
5891 5891 5890 5889 5889 5888 5888 5887 5886 5886 5886 5885 5884 5884 5884 5883 5883 5882 5882 5881 5881 5882 5882 5882 5882 5882 5882 5882 5882 5882 5882 5882 5882 5881 5881 5881 5882 5882 5883 5883 5884 5884 5885
5892 5892 5891 5890 5890 5889 5888 5888 5887 5886 5886 5886 5885 5885 5884 5884 5883 5883 5882 5882 5883 5883 5883 5883 5883 5883 5883 5883 5883 5882 5882 5882 5881 5881 5881 5881 5881 5881 5882 5883 5883 5884 5884
5893 5892 5892 5891 5890 5889 5889 5888 5887 5887 5886 5886 5885 5885 5884 5884 5884 5884 5884 5884 5884 5884 5884 5884 5884 5884 5883 5883 5883 5883 5882 5882 5881 5881 5881 5881 5880 5880 5880 5882 5883 5884 5884
5894 5893 5893 5891 5891 5890 5889 5888 5887 5887 5887 5886 5886 5885 5885 5885 5885 5885 5884 5884 5885 5885 5885 5884 5884 5884 5884 5884 5883 5883 5883 5882 5882 5881 5880 5880 5879 5878 5878 5879 5882 5883 5883
5895 5894 5893 5892 5891 5890 5890 5889 5888 5887 5887 5886 5886 5886 5885 5885 5885 5885 5885 5885 5885 5885 5885 5885 5885 5885 5884 5884 5884 5883 5883 5882 5882 5881 5880 5880 5878 5876 5876 5878 5881 5882 5883
5896 5895 5894 5893 5892 5891 5890 5889 5889 5888 5887 5887 5887 5887 5886 5886 5886 5886 5886 5886 5886 5886 5886 5886 5886 5885 5885 5885 5884 5884 5883 5882 5882 5881 5880 5880 5879 5878 5878 5879 5881 5881 5882
5897 5896 5895 5894 5893 5892 5891 5890 5890 5889 5888 5887 5887 5887 5887 5886 5886 5886 5886 5886 5886 5886 5886 5886 5886 5886 5885 5885 5885 5884 5883 5882 5881 5881 5880 5880 5879 5879 5879 5879 5880 5881 5881
5898 5897 5896 5895 5894 5893 5892 5891 5891 5890 5889 5888 5887 5887 5887 5887 5886 5886 5886 5886 5886 5886 5886 5886 5886 5886 5885 5885 5884 5883 5883 5882 5881 5881 5880 5880 5879 5879 5879 5879 5880 5880 5880
5899 5898 5897 5896 5895 5894 5893 5892 5891 5890 5889 5889 5888 5888 5888 5887 5887 5887 5887 5887 5887 5887 5886 5886 5886 5886 5885 5885 5884 5883 5882 5881 5881 5881 5880 5880 5879 5879 5878 5879 5879 5880 5880
5901 5899 5898 5897 5896 5895 5894 5892 5891 5890 5890 5889 5889 5888 5888 5888 5888 5887 5887 5887 5886 5886 5887 5886 5886 5885 5885 5884 5884 5883 5882 5881 5881 5880 5879 5879 5879 5879 5878 5878 5879 5879 5879
5902 5901 5899 5898 5897 5895 5894 5893 5892 5891 5890 5890 5889 5889 5888 5888 5888 5888 5887 5887 5886 5886 5886 5886 5886 5885 5885 5884 5883 5882 5881 5881 5880 5880 5879 5879 5879 5878 5878 5878 5878 5878 5879
5903 5902 5900 5899 5897 5896 5895 5894 5893 5892 5891 5890 5890 5889 5889 5888 5888 5888 5887 5887 5887 5886 5886 5886 5886 5885 5884 5883 5883 5882 5881 5881 5880 5880 5879 5879 5878 5878 5878 5878 5877 5878 5878
5904 5902 5901 5899 5898 5897 5896 5894 5893 5892 5892 5891 5890 5889 5889 5888 5888 5887 5887 5887 5886 5886 5886 5885 5885 5884 5884 5883 5882 5882 5881 5880 5880 5879 5879 5878 5878 5878 5877 5877 5877 5877 5877
5905 5903 5902 5900 5899 5898 5897 5895 5894 5893 5892 5891 5890 5889 5888 5888 5887 5887 5886 5886 5886 5885 5885 5885 5884 5884 5883 5883 5882 5881 5881 5880 5879 5879 5878 5878 5878 5877 5877 5876 5876 5876 5876
5906 5904 5903 5901 5900 5899 5898 5897 5895 5894 5893 5891 5890 5889 5888 5887 5887 5886 5886 5885 5885 5885 5884 5884 5884 5883 5882 5882 5881 5881 5880 5879 5879 5878 5878 5878 5877 5877 5876 5876 5875 5875 5875
5907 5905 5904 5903 5902 5900 5899 5898 5896 5895 5893 5892 5890 5889 5888 5887 5886 5885 5885 5884 5884 5883 5883 5883 5882 5882 5881 5881 5880 5880 5879 5878 5878 5878 5877 5877 5876 5876 5875 5875 5874 5874 5873
5907 5906 5905 5904 5903 5901 5900 5899 5897 5896 5894 5892 5891 5890 5888 5887 5886 5885 5884 5883 5883 5882 5882 5881 5881 5880 5880 5880 5879 5878 5878 5877 5877 5876 5876 5875 5875 5875 5874 5874 5874 5873 5873
5908 5907 5906 5905 5904 5903 5901 5899 5898 5896 5894 5893 5891 5890 5888 5887 5886 5885 5884 5883 5882 5881 5881 5880 5880 5879 5879 5878 5878 5877 5877 5876 5875 5875 5874 5874 5874 5874 5873 5873 5873 5872 5872
5909 5908 5907 5905 5904 5903 5902 5900 5898 5897 5895 5893 5891 5890 5888 5887 5885 5884 5883 5882 5881 5880 5880 5879 5879 5878 5878 5877 5876 5876 5875 5875 5874 5873 5873 5872 5872 5872 5872 5871 5871 5871 5871
5910 5908 5907 5906 5904 5903 5902 5900 5898 5897 5895 5893 5892 5890 5888 5886 5885 5884 5883 5881 5880 5879 5878 5878 5877 5877 5876 5876 5875 5874 5874 5873 5873 5872 5871 5871 5870 5870 5870 5870 5869 5869 5869
5910 5909 5908 5906 5905 5903 5902 5901 5899 5897 5895 5893 5892 5890 5888 5886 5885 5883 5882 5880 5879 5878 5877 5877 5876 5875 5875 5874 5873 5873 5872 5872 5871 5871 5870 5869 5868 5868 5868 5867 5867 5868 5867
5911 5909 5908 5907 5905 5904 5902 5900 5899 5897 5895 5893 5891 5889 5887 5886 5884 5882 5881 5879 5878 5877 5876 5875 5874 5873 5873 5872 5872 5871 5870 5870 5869 5869 5868 5868 5867 5866 5866 5866 5866 5866 5865
5911 5909 5908 5907 5905 5904 5902 5900 5898 5896 5894 5892 5890 5888 5886 5884 5883 5881 5879 5878 5876 5875 5874 5872 5872 5871 5871 5870 5870 5869 5869 5868 5868 5867 5866 5865 5865 5865 5864 5864 5863 5863 5863